UAL134 PKMJ-PHNL

Flight info

Callsign UAL134
Flight time N/A
Altitude 35000
Route DCT MAJ R584 MANRE/N0439F370 R584 CHOKO OPACA4
Aircraft A320/M-SDE3FGHIRWY/LB1

Departure

Time 2026-04-30 21:12
Airport Marshall Islands International Airport (PKMJ)

Arrival

Time N/A
Airport Daniel K. Inouye International Airport (PHNL)
Time Latitude Longitude Altitude Speed Heading
2026-04-30 21:06 7.06839 171.28192 -14 ft 0 kts 123°
2026-04-30 21:08 7.06833 171.28200 6 ft 5 kts 132°
2026-04-30 21:08 7.06780 171.28220 5 ft 11 kts 175°
2026-04-30 21:08 7.06729 171.28149 3 ft 17 kts 255°
2026-04-30 21:09 7.06694 171.28009 1 ft 24 kts 257°
2026-04-30 21:09 7.06653 171.27829 2 ft 29 kts 257°
2026-04-30 21:09 7.06603 171.27619 0 ft 33 kts 255°
2026-04-30 21:09 7.06545 171.27389 2 ft 34 kts 256°
2026-04-30 21:10 7.06489 171.27158 3 ft 34 kts 256°
2026-04-30 21:10 7.06433 171.26930 1 ft 35 kts 256°
2026-04-30 21:10 7.06373 171.26684 -2 ft 37 kts 256°
2026-04-30 21:10 7.06312 171.26433 -3 ft 37 kts 256°
2026-04-30 21:11 7.06268 171.26225 -2 ft 21 kts 276°
2026-04-30 21:11 7.06248 171.26185 -1 ft 7 kts 90°
2026-04-30 21:11 7.06271 171.26264 -2 ft 24 kts 76°
2026-04-30 21:11 7.06369 171.26665 -2 ft 91 kts 76°
2026-04-30 21:12 7.06564 171.27460 4 ft 140 kts 76°
2026-04-30 21:12 7.06822 171.28508 305 ft 157 kts 75°
2026-04-30 21:12 7.07064 171.29553 1050 ft 152 kts 78°
2026-04-30 21:12 7.07321 171.30587 1786 ft 152 kts 73°
2026-04-30 21:13 7.07799 171.31595 2301 ft 169 kts 63°
2026-04-30 21:13 7.08404 171.32664 2529 ft 186 kts 62°
2026-04-30 21:13 7.09089 171.33863 2652 ft 209 kts 62°
2026-04-30 21:13 7.09850 171.35204 2813 ft 232 kts 62°
2026-04-30 21:14 7.10673 171.36668 3283 ft 245 kts 62°
2026-04-30 21:14 7.11522 171.38176 4119 ft 251 kts 62°
2026-04-30 21:14 7.12388 171.39724 4988 ft 257 kts 63°
2026-04-30 21:14 7.13270 171.41316 5835 ft 264 kts 64°
2026-04-30 21:15 7.14172 171.42945 6863 ft 269 kts 64°
2026-04-30 21:15 7.15079 171.44597 7751 ft 270 kts 63°
2026-04-30 21:15 7.15994 171.46262 8361 ft 273 kts 63°
2026-04-30 21:15 7.16914 171.47934 9112 ft 276 kts 61°
2026-04-30 21:16 7.17858 171.49650 9855 ft 283 kts 61°
2026-04-30 21:16 7.18814 171.51385 10529 ft 281 kts 61°
2026-04-30 21:16 7.19758 171.53097 11122 ft 283 kts 61°
2026-04-30 21:16 7.20745 171.54884 11248 ft 301 kts 61°
2026-04-30 21:17 7.21800 171.56792 11375 ft 323 kts 61°
2026-04-30 21:17 7.22929 171.58832 11493 ft 345 kts 61°
2026-04-30 21:17 7.24122 171.60995 11615 ft 361 kts 61°
2026-04-30 21:17 7.25362 171.63254 11740 ft 375 kts 61°
2026-04-30 21:18 7.26649 171.65599 11856 ft 388 kts 61°
2026-04-30 21:18 7.27977 171.68014 12054 ft 399 kts 61°
2026-04-30 21:18 7.29335 171.70482 12351 ft 406 kts 61°
2026-04-30 21:18 7.30709 171.72980 12808 ft 409 kts 61°
2026-04-30 21:19 7.32090 171.75490 13250 ft 412 kts 61°
2026-04-30 21:19 7.33481 171.78028 13691 ft 415 kts 60°
2026-04-30 21:19 7.34877 171.80575 14105 ft 417 kts 61°
2026-04-30 21:19 7.36283 171.83141 14473 ft 420 kts 61°
2026-04-30 21:20 7.37699 171.85716 14874 ft 421 kts 61°
2026-04-30 21:20 7.39124 171.88305 15193 ft 425 kts 61°
2026-04-30 21:20 7.40558 171.90913 15559 ft 426 kts 61°
2026-04-30 21:20 7.41885 171.93330 15881 ft 428 kts 61°